| time (UTC) | temp F | wind direction | speed MPH | gust MPH | rain 1hr in | rain 24hr in | rain mn in | humidity % | barometer mb |
| 20260905035934 | 61 | 293 | 3.0 | 5.0 | 0.00 | 0.12 | 0.00 | 94 | 1002.6 |
| 20260905035434 | 61 | 54 | 3.0 | 5.0 | 0.00 | 0.12 | 0.00 | 94 | 1002.7 |
| 20260905035339 | 61 | 316 | 2.0 | 3.0 | 0.00 | 0.13 | 0.00 | 95 | 1002.6 |
| 20260905034432 | 61 | 119 | 2.0 | 3.0 | 0.00 | 0.13 | 0.00 | 94 | 1002.6 |
| 20260905033928 | 61 | 299 | 2.0 | 3.0 | 0.00 | 0.14 | 0.00 | 95 | 1002.6 |
| 20260905033426 | 61 | 291 | 2.0 | 3.0 | 0.00 | 0.16 | 0.00 | 95 | 1002.7 |
| 20260905032913 | 61 | 322 | 0.0 | 2.0 | 0.00 | 0.20 | 0.00 | 95 | 1002.5 |
| 20260905032413 | 61 | 265 | 1.0 | 2.0 | 0.00 | 0.27 | 0.00 | 95 | 1002.8 |
| 20260905031912 | 61 | 31 | 1.0 | 3.0 | 0.00 | 0.31 | 0.00 | 95 | 1002.9 |
| 20260905031413 | 61 | 325 | 1.0 | 3.0 | 0.00 | 0.34 | 0.00 | 95 | 1002.9 |
| 20260905030910 | 60 | 24 | 0.0 | 3.0 | 0.00 | 0.34 | 0.00 | 95 | 1002.9 |
| 20260905030410 | 61 | 284 | 0.0 | 3.0 | 0.00 | 0.34 | 0.00 | 95 | 1002.9 |
| 20260905025910 | 61 | 19 | 0.0 | 3.0 | 0.00 | 0.34 | 0.34 | 94 | 1002.7 |
| 20260905025408 | 61 | 307 | 2.0 | 3.0 | 0.00 | 0.34 | 0.34 | 94 | 1002.6 |
| 20260905024907 | 61 | 320 | 1.0 | 3.0 | 0.00 | 0.34 | 0.34 | 94 | 1002.6 |
| 20260905024407 | 61 | 317 | 2.0 | 3.0 | 0.00 | 0.34 | 0.34 | 93 | 1002.9 |
| 20260905023859 | 62 | 295 | 1.0 | 2.0 | 0.00 | 0.34 | 0.34 | 93 | 1002.6 |
| 20260905023530 | 62 | 306 | 1.0 | 3.0 | 0.00 | 0.34 | 0.34 | 93 | 1002.9 |
| 20260905022347 | 62 | 312 | 1.0 | 4.0 | 0.00 | 0.34 | 0.34 | 92 | 1002.8 |
| 20260905021846 | 63 | 325 | 2.0 | 4.0 | 0.00 | 0.34 | 0.34 | 92 | 1003.0 |
| 20260905021345 | 63 | 323 | 3.0 | 5.0 | 0.00 | 0.34 | 0.34 | 92 | 1003.0 |
| 20260905021225 | 63 | 83 | 2.0 | 5.0 | 0.00 | 0.34 | 0.34 | 93 | 1003.3 |
| 20260905020531 | 63 | 314 | 4.0 | 5.0 | 0.00 | 0.34 | 0.34 | 94 | 1003.4 |
| 20260905015340 | 63 | 283 | 3.0 | 6.0 | 0.00 | 0.34 | 0.34 | 94 | 1003.2 |
| 20260905014845 | 63 | 308 | 4.0 | 6.0 | 0.00 | 0.34 | 0.34 | 93 | 1003.2 |
| 20260905014340 | 64 | 311 | 3.0 | 6.0 | 0.00 | 0.34 | 0.34 | 93 | 1003.0 |
| 20260905013838 | 64 | 310 | 5.0 | 7.0 | 0.00 | 0.34 | 0.34 | 93 | 1003.3 |
| 20260905013339 | 64 | 312 | 4.0 | 7.0 | 0.00 | 0.34 | 0.34 | 93 | 1003.1 |
| 20260905012838 | 64 | 294 | 4.0 | 7.0 | 0.00 | 0.34 | 0.34 | 92 | 1003.6 |
| 20260905012343 | 64 | 301 | 3.0 | 7.0 | 0.00 | 0.34 | 0.34 | 91 | 1003.2 |
| 20260905011826 | 64 | 309 | 2.0 | 4.0 | 0.00 | 0.34 | 0.34 | 91 | 1003.2 |
| 20260905011328 | 64 | 290 | 3.0 | 3.0 | 0.00 | 0.34 | 0.34 | 89 | 1003.4 |
| 20260905010825 | 64 | 311 | 2.0 | 3.0 | 0.00 | 0.34 | 0.34 | 89 | 1003.3 |
| 20260905010324 | 64 | 240 | 0.0 | 3.0 | 0.00 | 0.34 | 0.34 | 89 | 1003.2 |
| 20260905005822 | 65 | 218 | 2.0 | 4.0 | 0.00 | 0.34 | 0.34 | 89 | 1003.3 |
| 20260905005709 | 65 | 259 | 1.0 | 5.0 | 0.00 | 0.34 | 0.34 | 89 | 1003.2 |
| 20260905004834 | 65 | 309 | 1.0 | 5.0 | 0.00 | 0.34 | 0.34 | 89 | 1003.2 |
| 20260905004332 | 65 | 213 | 2.0 | 4.0 | 0.00 | 0.34 | 0.34 | 89 | 1003.2 |
| 20260905003815 | 65 | 328 | 1.0 | 4.0 | 0.00 | 0.34 | 0.34 | 89 | 1003.4 |
| 20260905003315 | 65 | 199 | 0.0 | 4.0 | 0.00 | 0.34 | 0.34 | 89 | 1003.5 |
| 20260905002813 | 64 | 271 | 2.0 | 4.0 | 0.00 | 0.34 | 0.34 | 89 | 1003.4 |
| 20260905002313 | 65 | 244 | 0.0 | 2.0 | 0.00 | 0.34 | 0.34 | 89 | 1003.6 |
| 20260905001813 | 65 | 253 | 1.0 | 2.0 | 0.00 | 0.34 | 0.34 | 89 | 1003.6 |
| 20260905001309 | 65 | 199 | 0.0 | 4.0 | 0.00 | 0.34 | 0.34 | 89 | 1003.6 |
| 20260905000808 | 65 | 232 | 0.0 | 4.0 | 0.00 | 0.34 | 0.34 | 88 | 1003.7 |
| 20260905000307 | 64 | 299 | 2.0 | 2.0 | 0.00 | 0.34 | 0.34 | 89 | 1003.7 |
| 20260904235805 | 64 | 323 | 2.0 | 3.0 | 0.00 | 0.34 | 0.34 | 89 | 1003.7 |
| 20260904235306 | 64 | 117 | 0.0 | 3.0 | 0.00 | 0.34 | 0.34 | 89 | 1003.5 |
| 20260904234800 | 64 | 213 | 1.0 | 5.0 | 0.00 | 0.34 | 0.34 | 89 | 1003.7 |
| 20260904234258 | 65 | 240 | 2.0 | 5.0 | 0.00 | 0.34 | 0.34 | 88 | 1003.6 |
| 20260904234143 | 65 | 272 | 3.0 | 5.0 | 0.00 | 0.34 | 0.34 | 88 | 1003.5 |
| 20260904233425 | 65 | 307 | 3.0 | 6.0 | 0.00 | 0.34 | 0.34 | 88 | 1003.5 |
| 20260904232711 | 65 | 316 | 2.0 | 4.0 | 0.00 | 0.34 | 0.34 | 88 | 1003.4 |
| 20260904232158 | 65 | 312 | 2.0 | 4.0 | 0.00 | 0.34 | 0.34 | 88 | 1003.4 |
| 20260904231248 | 65 | 315 | 3.0 | 6.0 | 0.00 | 0.34 | 0.34 | 88 | 1003.5 |
| 20260904230748 | 65 | 308 | 3.0 | 6.0 | 0.00 | 0.34 | 0.34 | 88 | 1003.3 |
| 20260904230648 | 65 | 302 | 4.0 | 6.0 | 0.00 | 0.34 | 0.34 | 88 | 1003.2 |
| 20260904225742 | 65 | 307 | 3.0 | 7.0 | 0.00 | 0.34 | 0.34 | 88 | 1003.2 |
| 20260904225241 | 65 | 309 | 3.0 | 7.0 | 0.00 | 0.34 | 0.34 | 88 | 1003.4 |
| 20260904224741 | 65 | 299 | 4.0 | 7.0 | 0.00 | 0.34 | 0.34 | 88 | 1003.4 |
| 20260904224239 | 65 | 310 | 3.0 | 8.0 | 0.00 | 0.34 | 0.34 | 88 | 1003.5 |
| 20260904223739 | 65 | 309 | 5.0 | 8.0 | 0.00 | 0.34 | 0.34 | 88 | 1003.4 |
| 20260904223230 | 65 | 307 | 4.0 | 7.0 | 0.00 | 0.34 | 0.34 | 88 | 1003.6 |
| 20260904222726 | 65 | 318 | 4.0 | 6.0 | 0.00 | 0.34 | 0.34 | 88 | 1003.5 |
| 20260904222217 | 65 | 317 | 4.0 | 6.0 | 0.00 | 0.34 | 0.34 | 88 | 1003.6 |
| 20260904221716 | 65 | 316 | 5.0 | 8.0 | 0.00 | 0.34 | 0.34 | 88 | 1003.5 |
| 20260904221211 | 65 | 309 | 4.0 | 8.0 | 0.00 | 0.34 | 0.34 | 88 | 1003.5 |
| 20260904221055 | 65 | 304 | 3.0 | 7.0 | 0.00 | 0.34 | 0.34 | 88 | 1003.5 |
| 20260904220600 | 65 | 309 | 4.0 | 9.0 | 0.00 | 0.34 | 0.34 | 88 | 1003.5 |
| 20260904215657 | 65 | 311 | 3.0 | 9.0 | 0.00 | 0.34 | 0.34 | 88 | 1003.6 |
| 20260904215153 | 65 | 316 | 3.0 | 6.0 | 0.00 | 0.34 | 0.34 | 89 | 1003.8 |
| 20260904214652 | 66 | 275 | 4.0 | 7.0 | 0.00 | 0.34 | 0.34 | 88 | 1003.5 |
| 20260904214157 | 66 | 269 | 4.0 | 7.0 | 0.00 | 0.34 | 0.34 | 88 | 1003.7 |
| 20260904213652 | 66 | 307 | 5.0 | 6.0 | 0.00 | 0.34 | 0.34 | 88 | 1003.6 |
| 20260904213151 | 66 | 306 | 3.0 | 7.0 | 0.00 | 0.34 | 0.34 | 89 | 1003.7 |
| 20260904213100 | 66 | 290 | 2.0 | 7.0 | 0.00 | 0.34 | 0.34 | 89 | 1003.7 |
| 20260904212600 | 66 | 228 | 3.0 | 5.0 | 0.00 | 0.34 | 0.34 | 90 | 1003.7 |
| 20260904211650 | 66 | 311 | 3.0 | 7.0 | 0.00 | 0.34 | 0.34 | 90 | 1003.7 |
| 20260904211139 | 66 | 258 | 4.0 | 7.0 | 0.00 | 0.34 | 0.34 | 90 | 1003.9 |
| 20260904210635 | 66 | 265 | 2.0 | 6.0 | 0.00 | 0.34 | 0.34 | 90 | 1004.0 |
| 20260904210133 | 66 | 254 | 2.0 | 6.0 | 0.00 | 0.34 | 0.34 | 91 | 1003.9 |
| 20260904205633 | 66 | 242 | 2.0 | 6.0 | 0.00 | 0.34 | 0.34 | 91 | 1003.9 |
| 20260904205133 | 66 | 231 | 3.0 | 6.0 | 0.00 | 0.34 | 0.34 | 90 | 1004.0 |
| 20260904204633 | 66 | 242 | 3.0 | 6.0 | 0.00 | 0.34 | 0.34 | 90 | 1004.0 |
| 20260904204130 | 66 | 235 | 1.0 | 6.0 | 0.00 | 0.34 | 0.34 | 90 | 1004.0 |
| 20260904203627 | 66 | 235 | 4.0 | 8.0 | 0.00 | 0.34 | 0.34 | 90 | 1004.1 |
| 20260904203124 | 66 | 237 | 2.0 | 8.0 | 0.00 | 0.34 | 0.34 | 89 | 1004.0 |
| 20260904202625 | 66 | 301 | 4.0 | 6.0 | 0.00 | 0.34 | 0.34 | 89 | 1004.0 |
| 20260904202125 | 66 | 308 | 3.0 | 8.0 | 0.00 | 0.34 | 0.34 | 89 | 1004.1 |
| 20260904201625 | 67 | 297 | 3.0 | 8.0 | 0.00 | 0.34 | 0.34 | 89 | 1004.0 |
| 20260904201125 | 67 | 283 | 2.0 | 6.0 | 0.00 | 0.34 | 0.34 | 89 | 1004.2 |
| 20260904200622 | 67 | 267 | 3.0 | 6.0 | 0.00 | 0.34 | 0.34 | 89 | 1004.1 |
| 20260904200123 | 67 | 268 | 4.0 | 5.0 | 0.00 | 0.34 | 0.34 | 89 | 1004.0 |
| 20260904195619 | 67 | 291 | 2.0 | 5.0 | 0.00 | 0.34 | 0.34 | 89 | 1004.0 |
| 20260904195117 | 67 | 205 | 2.0 | 5.0 | 0.00 | 0.34 | 0.34 | 89 | 1004.1 |
| 20260904194615 | 67 | 310 | 3.0 | 5.0 | 0.00 | 0.34 | 0.34 | 89 | 1004.3 |
| 20260904194114 | 66 | 234 | 1.0 | 5.0 | 0.00 | 0.34 | 0.34 | 90 | 1004.2 |
| 20260904193613 | 66 | 244 | 2.0 | 5.0 | 0.00 | 0.34 | 0.34 | 90 | 1003.9 |
| 20260904193112 | 66 | 309 | 3.0 | 6.0 | 0.00 | 0.34 | 0.34 | 90 | 1004.0 |
| 20260904192610 | 66 | 297 | 3.0 | 9.0 | 0.00 | 0.34 | 0.34 | 90 | 1004.2 |
| 20260904192110 | 66 | 253 | 5.0 | 9.0 | 0.00 | 0.34 | 0.34 | 91 | 1004.2 |
| 20260904191611 | 66 | 301 | 3.0 | 7.0 | 0.00 | 0.34 | 0.34 | 90 | 1004.1 |
| 20260904191110 | 66 | 190 | 3.0 | 6.0 | 0.00 | 0.34 | 0.34 | 90 | 1004.2 |
| 20260904190611 | 66 | 316 | 2.0 | 4.0 | 0.00 | 0.34 | 0.34 | 90 | 1004.1 |
| 20260904190117 | 66 | 297 | 2.0 | 4.0 | 0.00 | 0.34 | 0.34 | 89 | 1004.1 |
| 20260904185609 | 67 | 259 | 3.0 | 5.0 | 0.00 | 0.34 | 0.34 | 89 | 1004.2 |
| 20260904185103 | 67 | 296 | 3.0 | 5.0 | 0.00 | 0.34 | 0.34 | 89 | 1004.1 |
| 20260904184604 | 67 | 279 | 2.0 | 6.0 | 0.00 | 0.34 | 0.34 | 89 | 1004.3 |
| 20260904184054 | 66 | 279 | 4.0 | 6.0 | 0.00 | 0.34 | 0.34 | 89 | 1004.4 |
| 20260904183553 | 67 | 307 | 5.0 | 6.0 | 0.00 | 0.34 | 0.34 | 89 | 1004.2 |
| 20260904183052 | 67 | 274 | 3.0 | 6.0 | 0.00 | 0.34 | 0.34 | 88 | 1004.3 |
| 20260904182551 | 67 | 251 | 4.0 | 6.0 | 0.00 | 0.34 | 0.34 | 89 | 1004.4 |
| 20260904182051 | 67 | 323 | 4.0 | 5.0 | 0.00 | 0.34 | 0.34 | 88 | 1004.4 |
| 20260904181551 | 67 | 295 | 3.0 | 5.0 | 0.00 | 0.34 | 0.34 | 88 | 1004.3 |
| 20260904181049 | 67 | 324 | 2.0 | 5.0 | 0.00 | 0.34 | 0.34 | 88 | 1004.2 |
| 20260904180600 | 67 | 310 | 4.0 | 5.0 | 0.00 | 0.34 | 0.34 | 88 | 1004.3 |
| 20260904180059 | 68 | 300 | 2.0 | 5.0 | 0.00 | 0.36 | 0.34 | 88 | 1004.3 |
| 20260904175543 | 68 | 243 | 1.0 | 4.0 | 0.00 | 0.36 | 0.34 | 89 | 1004.3 |
| 20260904175040 | 67 | 207 | 2.0 | 5.0 | 0.00 | 0.36 | 0.34 | 89 | 1004.4 |
| 20260904174947 | 67 | 255 | 2.0 | 6.0 | 0.00 | 0.36 | 0.34 | 89 | 1004.3 |
| 20260904174038 | 67 | 244 | 3.0 | 8.0 | 0.00 | 0.37 | 0.34 | 89 | 1004.7 |
| 20260904173954 | 67 | 299 | 2.0 | 8.0 | 0.00 | 0.37 | 0.34 | 88 | 1004.5 |
| 20260904173432 | 68 | 288 | 2.0 | 6.0 | 0.00 | 0.37 | 0.34 | 89 | 1004.4 |
| 20260904172530 | 67 | 280 | 2.0 | 6.0 | 0.00 | 0.37 | 0.34 | 89 | 1004.5 |
| 20260904172030 | 67 | 293 | 4.0 | 5.0 | 0.00 | 0.37 | 0.34 | 88 | 1004.5 |
| 20260904171528 | 68 | 288 | 3.0 | 6.0 | 0.00 | 0.38 | 0.34 | 88 | 1004.6 |
| 20260904171028 | 68 | 265 | 3.0 | 6.0 | 0.00 | 0.38 | 0.34 | 87 | 1004.5 |
| 20260904170526 | 68 | 292 | 3.0 | 6.0 | 0.00 | 0.39 | 0.34 | 86 | 1004.6 |
| 20260904170027 | 68 | 19 | 1.0 | 8.0 | 0.00 | 0.39 | 0.34 | 86 | 1004.5 |
| 20260904165521 | 68 | 314 | 3.0 | 8.0 | 0.00 | 0.39 | 0.34 | 86 | 1004.7 |
| 20260904165403 | 68 | 300 | 4.0 | 6.0 | 0.00 | 0.39 | 0.34 | 87 | 1004.4 |
| 20260904164519 | 68 | 290 | 0.0 | 6.0 | 0.00 | 0.39 | 0.34 | 88 | 1004.5 |
| 20260904164016 | 68 | 296 | 2.0 | 6.0 | 0.00 | 0.39 | 0.34 | 87 | 1004.4 |
| 20260904163515 | 68 | 297 | 2.0 | 5.0 | 0.00 | 0.39 | 0.34 | 87 | 1004.6 |
| 20260904163016 | 68 | 278 | 1.0 | 6.0 | 0.00 | 0.39 | 0.34 | 88 | 1004.6 |
| 20260904162515 | 68 | 300 | 2.0 | 6.0 | 0.00 | 0.39 | 0.34 | 88 | 1004.7 |
| 20260904162015 | 68 | 302 | 3.0 | 6.0 | 0.00 | 0.41 | 0.34 | 88 | 1004.7 |
| 20260904161514 | 68 | 327 | 0.0 | 6.0 | 0.00 | 0.41 | 0.34 | 89 | 1004.8 |
| 20260904161415 | 68 | 307 | 4.0 | 6.0 | 0.00 | 0.41 | 0.34 | 88 | 1004.8 |
| 20260904160510 | 68 | 270 | 3.0 | 6.0 | 0.00 | 0.41 | 0.34 | 89 | 1004.9 |
| 20260904160026 | 68 | 218 | 4.0 | 7.0 | 0.00 | 0.41 | 0.34 | 88 | 1004.9 |
| 20260904155513 | 68 | 232 | 3.0 | 7.0 | 0.00 | 0.42 | 0.34 | 88 | 1004.9 |
| 20260904155012 | 68 | 280 | 4.0 | 11.0 | 0.00 | 0.42 | 0.34 | 88 | 1004.9 |
| 20260904154924 | 68 | 266 | 4.0 | 11.0 | 0.00 | 0.43 | 0.34 | 89 | 1005.0 |
| 20260904154021 | 68 | 301 | 9.0 | 11.0 | 0.00 | 0.44 | 0.34 | 87 | 1005.1 |
| 20260904153508 | 69 | 309 | 9.0 | 11.0 | 0.00 | 0.44 | 0.34 | 87 | 1005.0 |
| 20260904153015 | 69 | 279 | 3.0 | 10.0 | 0.00 | 0.45 | 0.34 | 88 | 1005.2 |
| 20260904152519 | 68 | 308 | 3.0 | 9.0 | 0.00 | 0.47 | 0.34 | 91 | 1005.0 |
| 20260904152007 | 68 | 315 | 4.0 | 9.0 | 0.00 | 0.47 | 0.34 | 91 | 1005.2 |
| 20260904151519 | 68 | 300 | 9.0 | 9.0 | 0.00 | 0.48 | 0.34 | 89 | 1005.3 |
| 20260904151016 | 69 | 298 | 6.0 | 10.0 | 0.00 | 0.49 | 0.34 | 89 | 1005.2 |
| 20260904150501 | 69 | 294 | 6.0 | 10.0 | 0.00 | 0.49 | 0.34 | 89 | 1005.3 |
| 20260904145958 | 69 | 303 | 4.0 | 8.0 | 0.00 | 0.49 | 0.34 | 89 | 1005.3 |
| 20260904145455 | 69 | 300 | 6.0 | 10.0 | 0.00 | 0.49 | 0.34 | 89 | 1005.2 |
| 20260904144952 | 69 | 302 | 5.0 | 10.0 | 0.00 | 0.49 | 0.34 | 89 | 1005.1 |
| 20260904144455 | 69 | 299 | 7.0 | 8.0 | 0.00 | 0.49 | 0.34 | 88 | 1005.2 |
| 20260904143951 | 69 | 304 | 4.0 | 9.0 | 0.00 | 0.49 | 0.34 | 91 | 1005.3 |
| 20260904143451 | 69 | 298 | 3.0 | 9.0 | 0.00 | 0.49 | 0.34 | 91 | 1005.2 |
| 20260904142949 | 69 | 316 | 3.0 | 6.0 | 0.00 | 0.49 | 0.34 | 92 | 1005.2 |
| 20260904142449 | 69 | 304 | 4.0 | 6.0 | 0.00 | 0.49 | 0.34 | 93 | 1005.5 |
| 20260904141945 | 68 | 240 | 2.0 | 5.0 | 0.00 | 0.49 | 0.34 | 93 | 1005.4 |
| 20260904141645 | 68 | 314 | 3.0 | 5.0 | 0.00 | 0.49 | 0.34 | 93 | 1005.4 |
| 20260904140438 | 68 | 269 | 4.0 | 5.0 | 0.00 | 0.49 | 0.34 | 95 | 1005.4 |
| 20260904135935 | 68 | 226 | 2.0 | 5.0 | 0.00 | 0.49 | 0.34 | 94 | 1005.4 |
| 20260904135431 | 68 | 283 | 1.0 | 4.0 | 0.00 | 0.49 | 0.34 | 95 | 1005.5 |
| 20260904134926 | 68 | 292 | 2.0 | 4.0 | 0.00 | 0.49 | 0.34 | 95 | 1005.5 |
| 20260904134425 | 68 | 315 | 1.0 | 4.0 | 0.00 | 0.49 | 0.34 | 95 | 1005.6 |
| 20260904133924 | 68 | 273 | 2.0 | 3.0 | 0.00 | 0.49 | 0.34 | 95 | 1005.7 |
| 20260904133425 | 68 | 341 | 0.0 | 3.0 | 0.00 | 0.49 | 0.34 | 95 | 1005.5 |
| 20260904132925 | 68 | 199 | 0.0 | 3.0 | 0.00 | 0.49 | 0.34 | 95 | 1005.7 |
| 20260904132422 | 68 | 247 | 1.0 | 2.0 | 0.00 | 0.49 | 0.34 | 95 | 1005.5 |
| 20260904131920 | 67 | 263 | 2.0 | 2.0 | 0.00 | 0.49 | 0.34 | 96 | 1005.7 |
| 20260904131417 | 67 | 324 | 1.0 | 4.0 | 0.00 | 0.49 | 0.34 | 97 | 1005.7 |
| 20260904130915 | 67 | 291 | 2.0 | 4.0 | 0.00 | 0.49 | 0.34 | 96 | 1005.7 |
| 20260904130426 | 66 | 205 | 0.0 | 4.0 | 0.00 | 0.49 | 0.34 | 97 | 1005.6 |
| 20260904125913 | 67 | 295 | 1.0 | 2.0 | 0.00 | 0.49 | 0.34 | 98 | 1005.6 |
| 20260904125414 | 66 | 294 | 1.0 | 2.0 | 0.00 | 0.49 | 0.34 | 98 | 1005.7 |
| 20260904125049 | 66 | 300 | 2.0 | 2.0 | 0.00 | 0.49 | 0.34 | 98 | 1005.8 |
| 20260904123912 | 65 | 313 | 2.0 | 4.0 | 0.00 | 0.49 | 0.34 | 98 | 1005.9 |
| 20260904123752 | 66 | 294 | 1.0 | 3.0 | 0.00 | 0.49 | 0.34 | 98 | 1005.9 |
| 20260904122905 | 66 | 301 | 2.0 | 2.0 | 0.01 | 0.49 | 0.34 | 98 | 1006.2 |
| 20260904122415 | 66 | 348 | 2.0 | 2.0 | 0.01 | 0.49 | 0.34 | 98 | 1006.0 |
| 20260904121900 | 66 | 306 | 0.0 | 2.0 | 0.01 | 0.49 | 0.34 | 98 | 1006.0 |
| 20260904121400 | 65 | 339 | 0.0 | 2.0 | 0.01 | 0.49 | 0.34 | 98 | 1006.2 |
| 20260904120858 | 65 | 306 | 2.0 | 2.0 | 0.01 | 0.49 | 0.34 | 98 | 1006.4 |
| 20260904120356 | 65 | 2 | 0.0 | 2.0 | 0.01 | 0.49 | 0.34 | 98 | 1006.3 |
| 20260904115853 | 65 | 297 | 0.0 | 2.0 | 0.01 | 0.49 | 0.34 | 98 | 1006.2 |
| 20260904115745 | 65 | 302 | 1.0 | 2.0 | 0.01 | 0.49 | 0.34 | 98 | 1006.4 |
| 20260904114851 | 65 | 49 | 2.0 | 2.0 | 0.01 | 0.49 | 0.34 | 98 | 1006.3 |
| 20260904114349 | 65 | 28 | 1.0 | 2.0 | 0.01 | 0.49 | 0.34 | 98 | 1006.3 |
| 20260904113847 | 65 | 19 | 0.0 | 2.0 | 0.01 | 0.49 | 0.34 | 98 | 1006.5 |
| 20260904113348 | 65 | 64 | 1.0 | 2.0 | 0.01 | 0.49 | 0.34 | 98 | 1006.7 |
| 20260904112847 | 65 | 0 | 0.0 | 2.0 | 0.00 | 0.48 | 0.33 | 98 | 1006.6 |
| 20260904112345 | 65 | 14 | 0.0 | 2.0 | 0.00 | 0.48 | 0.33 | 98 | 1006.5 |
| 20260904111839 | 65 | 290 | 0.0 | 2.0 | 0.00 | 0.48 | 0.33 | 98 | 1006.5 |
| 20260904111339 | 64 | 278 | 0.0 | 2.0 | 0.00 | 0.48 | 0.33 | 98 | 1006.4 |
| 20260904110849 | 64 | 291 | 0.0 | 2.0 | 0.00 | 0.48 | 0.33 | 98 | 1006.7 |
| 20260904110338 | 64 | 300 | 0.0 | 2.0 | 0.00 | 0.48 | 0.33 | 98 | 1006.7 |
| 20260904105834 | 64 | 310 | 2.0 | 2.0 | 0.00 | 0.48 | 0.33 | 98 | 1006.8 |
| 20260904105703 | 64 | 296 | 1.0 | 3.0 | 0.00 | 0.48 | 0.33 | 98 | 1006.5 |
| 20260904105526 | 64 | 292 | 1.0 | 3.0 | 0.00 | 0.48 | 0.33 | 98 | 1006.5 |
| 20260904103829 | 64 | 301 | 1.0 | 3.0 | 0.00 | 0.48 | 0.33 | 98 | 1006.6 |
| 20260904103326 | 64 | 332 | 2.0 | 3.0 | 0.00 | 0.48 | 0.33 | 98 | 1006.8 |
| 20260904102823 | 64 | 303 | 2.0 | 3.0 | 0.00 | 0.48 | 0.33 | 98 | 1006.8 |
| 20260904102323 | 64 | 302 | 2.0 | 3.0 | 0.00 | 0.48 | 0.33 | 98 | 1006.8 |
| 20260904101823 | 64 | 350 | 0.0 | 3.0 | 0.00 | 0.48 | 0.33 | 98 | 1006.7 |
| 20260904101721 | 64 | 312 | 1.0 | 3.0 | 0.00 | 0.48 | 0.33 | 98 | 1006.9 |
| 20260904100819 | 64 | 315 | 2.0 | 3.0 | 0.00 | 0.48 | 0.33 | 98 | 1006.9 |
| 20260904100317 | 64 | 313 | 1.0 | 3.0 | 0.00 | 0.48 | 0.33 | 98 | 1007.0 |
| 20260904095816 | 64 | 355 | 1.0 | 3.0 | 0.00 | 0.48 | 0.33 | 98 | 1007.0 |
| 20260904095316 | 64 | 25 | 0.0 | 2.0 | 0.00 | 0.48 | 0.33 | 98 | 1006.9 |
| 20260904094810 | 64 | 315 | 1.0 | 4.0 | 0.00 | 0.48 | 0.33 | 98 | 1006.8 |
| 20260904094645 | 64 | 284 | 0.0 | 4.0 | 0.00 | 0.48 | 0.33 | 98 | 1007.0 |
| 20260904093803 | 63 | 318 | 0.0 | 4.0 | 0.00 | 0.48 | 0.33 | 98 | 1007.0 |
| 20260904093302 | 63 | 304 | 0.0 | 4.0 | 0.01 | 0.48 | 0.33 | 98 | 1006.9 |
| 20260904092801 | 63 | 17 | 3.0 | 4.0 | 0.01 | 0.48 | 0.33 | 98 | 1007.0 |
| 20260904092259 | 63 | 320 | 2.0 | 4.0 | 0.01 | 0.48 | 0.33 | 98 | 1007.0 |
| 20260904091759 | 63 | 325 | 1.0 | 4.0 | 0.01 | 0.48 | 0.33 | 98 | 1007.1 |
| 20260904091259 | 63 | 306 | 2.0 | 4.0 | 0.01 | 0.48 | 0.33 | 98 | 1007.1 |
| 20260904090813 | 63 | 310 | 1.0 | 4.0 | 0.01 | 0.48 | 0.33 | 98 | 1007.3 |
| 20260904090258 | 63 | 54 | 2.0 | 4.0 | 0.01 | 0.48 | 0.33 | 98 | 1007.1 |
| 20260904085757 | 63 | 295 | 1.0 | 2.0 | 0.01 | 0.48 | 0.33 | 98 | 1007.4 |
| 20260904085253 | 63 | 16 | 0.0 | 4.0 | 0.01 | 0.48 | 0.33 | 98 | 1007.4 |
| 20260904084755 | 63 | 7 | 0.0 | 4.0 | 0.01 | 0.48 | 0.33 | 98 | 1007.5 |
| 20260904084254 | 63 | 288 | 2.0 | 4.0 | 0.01 | 0.48 | 0.33 | 98 | 1007.5 |
| 20260904083755 | 63 | 29 | 3.0 | 4.0 | 0.01 | 0.48 | 0.33 | 98 | 1007.5 |
| 20260904083255 | 63 | 290 | 0.0 | 4.0 | 0.01 | 0.47 | 0.33 | 98 | 1007.6 |
| 20260904082752 | 63 | 309 | 2.0 | 2.0 | 0.01 | 0.47 | 0.31 | 98 | 1007.6 |
| 20260904082250 | 63 | 307 | 2.0 | 4.0 | 0.01 | 0.47 | 0.31 | 98 | 1007.6 |
| 20260904081748 | 63 | 29 | 2.0 | 4.0 | 0.01 | 0.47 | 0.31 | 98 | 1008.0 |
| 20260904081409 | 63 | 323 | 2.0 | 4.0 | 0.01 | 0.47 | 0.31 | 98 | 1007.8 |
| 20260904080244 | 63 | 330 | 2.0 | 5.0 | 0.01 | 0.47 | 0.31 | 98 | 1007.9 |
| 20260904075742 | 63 | 304 | 4.0 | 4.0 | 0.01 | 0.47 | 0.31 | 98 | 1008.1 |
| 20260904075241 | 63 | 307 | 1.0 | 4.0 | 0.01 | 0.47 | 0.31 | 98 | 1008.2 |
| 20260904074741 | 63 | 312 | 1.0 | 3.0 | 0.01 | 0.47 | 0.31 | 98 | 1008.1 |
| 20260904074240 | 62 | 19 | 1.0 | 4.0 | 0.01 | 0.47 | 0.31 | 98 | 1008.2 |
| 20260904073736 | 62 | 12 | 0.0 | 5.0 | 0.01 | 0.47 | 0.31 | 98 | 1008.2 |
| 20260904073235 | 62 | 44 | 2.0 | 5.0 | 0.01 | 0.46 | 0.30 | 98 | 1008.3 |
| 20260904072732 | 62 | 257 | 1.0 | 3.0 | 0.01 | 0.46 | 0.30 | 98 | 1008.4 |
| 20260904072233 | 62 | 32 | 2.0 | 3.0 | 0.01 | 0.46 | 0.30 | 98 | 1008.2 |
| 20260904071734 | 62 | 19 | 2.0 | 4.0 | 0.01 | 0.46 | 0.30 | 98 | 1008.5 |
| 20260904071231 | 62 | 318 | 2.0 | 4.0 | 0.01 | 0.46 | 0.30 | 98 | 1008.5 |
| 20260904071102 | 62 | 326 | 1.0 | 5.0 | 0.02 | 0.46 | 0.30 | 98 | 1008.7 |
| 20260904070229 | 62 | 284 | 0.0 | 5.0 | 0.02 | 0.46 | 0.30 | 98 | 1008.7 |
| 20260904065727 | 62 | 294 | 2.0 | 4.0 | 0.02 | 0.46 | 0.30 | 98 | 1008.8 |
| 20260904065227 | 62 | 300 | 2.0 | 4.0 | 0.02 | 0.46 | 0.30 | 98 | 1008.7 |
| 20260904064728 | 62 | 289 | 2.0 | 3.0 | 0.02 | 0.46 | 0.30 | 98 | 1009.0 |
| 20260904064227 | 62 | 5 | 1.0 | 3.0 | 0.04 | 0.46 | 0.30 | 98 | 1008.9 |
| 20260904063724 | 62 | 304 | 0.0 | 4.0 | 0.06 | 0.46 | 0.30 | 98 | 1009.2 |
| 20260904063222 | 62 | 35 | 0.0 | 4.0 | 0.05 | 0.44 | 0.29 | 97 | 1009.4 |
| 20260904062719 | 62 | 336 | 2.0 | 3.0 | 0.05 | 0.44 | 0.29 | 97 | 1009.5 |
| 20260904062629 | 61 | 30 | 0.0 | 3.0 | 0.05 | 0.44 | 0.29 | 97 | 1009.4 |
| 20260904061716 | 61 | 260 | 0.0 | 2.0 | 0.06 | 0.44 | 0.29 | 97 | 1009.6 |
| 20260904061214 | 61 | 342 | 0.0 | 3.0 | 0.06 | 0.44 | 0.29 | 97 | 1009.4 |
| 20260904060709 | 61 | 347 | 2.0 | 4.0 | 0.05 | 0.43 | 0.28 | 97 | 1010.0 |
| 20260904060222 | 61 | 4 | 0.0 | 4.0 | 0.05 | 0.43 | 0.28 | 97 | 1009.8 |
| 20260904055704 | 61 | 53 | 2.0 | 3.0 | 0.05 | 0.43 | 0.28 | 97 | 1009.9 |
| 20260904055205 | 61 | 308 | 2.0 | 4.0 | 0.05 | 0.43 | 0.28 | 97 | 1009.9 |
| 20260904054702 | 61 | 316 | 2.0 | 6.0 | 0.05 | 0.43 | 0.28 | 97 | 1010.2 |
| 20260904054159 | 61 | 328 | 2.0 | 6.0 | 0.03 | 0.42 | 0.26 | 96 | 1010.3 |
| 20260904053659 | 61 | 294 | 2.0 | 4.0 | 0.01 | 0.40 | 0.24 | 96 | 1010.3 |
| 20260904053350 | 61 | 133 | 2.0 | 4.0 | 0.01 | 0.40 | 0.24 | 96 | 1010.2 |
| 20260904052156 | 61 | 155 | 0.0 | 4.0 | 0.01 | 0.40 | 0.24 | 96 | 1010.2 |
| 20260904051828 | 61 | 280 | 1.0 | 4.0 | 0.00 | 0.39 | 0.23 | 96 | 1010.5 |
| 20260904050653 | 61 | 269 | 1.0 | 4.0 | 0.01 | 0.39 | 0.23 | 95 | 1010.6 |
| 20260904050152 | 61 | 72 | 2.0 | 8.0 | 0.01 | 0.39 | 0.23 | 95 | 1011.0 |
| 20260904045659 | 61 | 44 | 3.0 | 8.0 | 0.01 | 0.39 | 0.23 | 96 | 1010.9 |
| 20260904045527 | 61 | 63 | 2.0 | 3.0 | 0.01 | 0.39 | 0.23 | 96 | 1011.1 |
| 20260904044636 | 61 | 320 | 2.0 | 4.0 | 0.03 | 0.39 | 0.23 | 95 | 1011.1 |
| 20260904044141 | 61 | 30 | 1.0 | 6.0 | 0.03 | 0.39 | 0.23 | 95 | 1011.3 |
| 20260904043632 | 61 | 53 | 1.0 | 6.0 | 0.05 | 0.39 | 0.23 | 95 | 1011.1 |
| 20260904043129 | 61 | 321 | 2.0 | 4.0 | 0.08 | 0.39 | 0.23 | 95 | 1011.3 |
| 20260904043034 | 61 | 42 | 1.0 | 5.0 | 0.16 | 0.39 | 0.23 | 94 | 1011.6 |
| 20260904042133 | 61 | 16 | 1.0 | 5.0 | 0.18 | 0.39 | 0.23 | 94 | 1011.5 |
| 20260904042021 | 61 | 317 | 1.0 | 6.0 | 0.23 | 0.39 | 0.23 | 94 | 1011.5 |
| 20260904041126 | 61 | 162 | 0.0 | 6.0 | 0.23 | 0.39 | 0.23 | 94 | 1011.8 |
| 20260904040625 | 61 | 305 | 5.0 | 10.0 | 0.22 | 0.37 | 0.22 | 94 | 1011.7 |
| 20260904040547 | 61 | 328 | 2.0 | 10.0 | 0.22 | 0.37 | 0.22 | 93 | 1011.7 |